Student's Login

Local Time

LGIR WEATHER

[source: ADDS]
METAR
LGIR 170620Z 16005KT CAVOK 20/16 Q1017 NOSIG =
TAF LGIR 170500Z 1706/1806 18010KT 9999 FEW020 BECMG 1706/1708 33010KT BECMG 1717/1719 VRB05KT
TAF
TAF LGIR 170500Z 1706/1806 18010KT 9999 FEW020 BECMG 1706/1708 33010KT BECMG 1717/1719 VRB05KT =

Czech sport aircraft

Cretan Eagle Aviation Ltd. is proud to be appointed as an authorized Czech Sport Aircraft Promoter for Greece
and Cyprus. Please click on the link or give us a call for any additional information on Czech Sport Aircraft.

 

 

On-line PPL QUIZ

Student members can join our free on-line database to practice on PPL quizzes and get ready for the real
exams. Becoming a member and getting access to our system is FREE for all of our students.

 

Paypal Verified

Payments for any Course can be made by Bank Transfer, Cash and PayPal secure payment.

 

Go to top